Location: Bonneuil
(46.1010°N, 2.9693°E)
Time: 04:06:28
(UTC+00:00)

SL-16 R/B - Pass Details

Date: 09 April 2020
Orbit: 985 x 1007 km, 99.5° (Epoch: 02 June)

Event Time Altitude Azimuth Distance (km) Brightness Sun altitude
Exits shadow 23:48:43 19° 74° (ENE) 2,196 4.4 -35.9°
Maximum altitude 23:50:12 21° 55° (NE) 2,109 4.5 -35.9°
Drops below altitude 10° 23:54:34 10° 10° (N) 2,775 5.6 -35.8°
Sets 23:57:41 0° 355° (N) 3,724 6.5 -35.8°
